TimeMST,TemperatureF,Dew PointF,Humidity,Sea Level PressureIn,VisibilityMPH,Wind Direction,Wind SpeedMPH,Gust SpeedMPH,PrecipitationIn,Events,Conditions,WindDirDegrees,DateUTC
12:57 AM,51.1,37.0,59,30.04,10.0,Calm,Calm,-,N/A,,Clear,0,2013-08-14 07:57:00
1:57 AM,52.0,35.1,53,30.02,10.0,Calm,Calm,-,N/A,,Clear,0,2013-08-14 08:57:00
2:57 AM,50.0,35.1,57,30.03,10.0,Calm,Calm,-,N/A,,Clear,0,2013-08-14 09:57:00
3:57 AM,48.9,35.1,59,30.03,10.0,Calm,Calm,-,N/A,,Clear,0,2013-08-14 10:57:00
4:57 AM,48.9,35.1,59,30.02,10.0,Calm,Calm,-,N/A,,Clear,0,2013-08-14 11:57:00
5:57 AM,46.9,36.0,66,30.05,10.0,Calm,Calm,-,N/A,,Clear,0,2013-08-14 12:57:00
6:57 AM,54.0,39.9,59,30.06,10.0,Calm,Calm,-,N/A,,Clear,0,2013-08-14 13:57:00
7:57 AM,66.0,42.1,42,30.06,10.0,Calm,Calm,-,N/A,,Clear,0,2013-08-14 14:57:00
8:57 AM,73.0,44.1,35,30.06,10.0,NE,3.5,-,N/A,,Mostly Cloudy,50,2013-08-14 15:57:00
9:57 AM,75.9,42.1,30,30.07,10.0,Calm,Calm,-,N/A,,Partly Cloudy,0,2013-08-14 16:57:00
10:57 AM,78.1,42.1,28,30.06,10.0,Variable,3.5,-,N/A,,Partly Cloudy,0,2013-08-14 17:57:00
11:57 AM,79.0,42.1,27,30.05,10.0,Variable,3.5,-,N/A,,Clear,0,2013-08-14 18:57:00
12:57 PM,79.0,39.9,25,30.05,10.0,SSW,10.4,16.1,N/A,,Partly Cloudy,210,2013-08-14 19:57:00
1:57 PM,80.1,41.0,25,30.03,10.0,SSW,10.4,-,N/A,,Scattered Clouds,200,2013-08-14 20:57:00
2:57 PM,82.9,41.0,23,30.00,10.0,SSW,15.0,23.0,N/A,,Scattered Clouds,210,2013-08-14 21:57:00
3:57 PM,81.0,37.9,21,30.01,10.0,WSW,15.0,20.7,N/A,,Mostly Cloudy,240,2013-08-14 22:57:00
4:57 PM,80.1,39.0,23,30.00,10.0,WSW,10.4,-,N/A,,Scattered Clouds,250,2013-08-14 23:57:00
5:57 PM,79.0,37.9,23,30.00,10.0,SW,10.4,-,N/A,,Clear,230,2013-08-15 00:57:00
6:57 PM,75.9,39.0,26,29.99,10.0,WSW,5.8,-,N/A,,Clear,250,2013-08-15 01:57:00
7:57 PM,66.9,43.0,42,30.00,10.0,Calm,Calm,-,N/A,,Clear,0,2013-08-15 02:57:00
8:57 PM,63.0,42.1,46,30.01,10.0,Calm,Calm,-,N/A,,Clear,0,2013-08-15 03:57:00
9:57 PM,57.9,42.1,56,30.03,10.0,Calm,Calm,-,N/A,,Clear,0,2013-08-15 04:57:00
10:57 PM,57.0,43.0,59,30.02,10.0,Calm,Calm,-,N/A,,Clear,0,2013-08-15 05:57:00
11:57 PM,57.0,43.0,59,30.02,10.0,Calm,Calm,-,N/A,,Clear,0,2013-08-15 06:57:00